$DATE,$TIME,DM0600B,DM0602B,DM0604B,DM0614B,DM0616B,DM0618B,DM0624B,DM0628B,DM0630B,DM0634B,DM0606B,DM0608B,DM0610B
10/06/94,00:00:00,24,0,16,37,23,13,35,77,25,0,11,11,5
10/06/94,00:05:00,20,0,34,47,23,14,36,76,25,0,9,9,4
10/06/94,00:10:00,0,0,18,37,24,14,38,78,25,0,8,7,5
10/06/94,00:15:00,32,0,22,41,26,15,40,77,25,0,7,10,5
10/06/94,00:20:00,29,0,41,49,28,16,44,76,25,0,6,19,5
10/06/94,00:25:00,7,0,33,38,31,18,47,76,25,0,6,14,5
10/06/94,00:30:00,0,0,30,40,29,16,44,76,32,0,6,10,5
10/06/94,00:35:00,3,0,16,50,29,16,44,76,25,0,6,8,5
10/06/94,00:40:00,15,0,22,44,29,16,44,76,25,0,5,6,5
10/06/94,00:45:00,28,0,25,43,28,16,42,76,25,0,5,8,6
10/06/94,00:50:00,12,0,15,42,26,15,40,76,25,0,5,18,5
10/06/94,00:55:00,1,0,22,44,24,14,37,76,25,0,6,15,5
10/06/94,01:00:00,0,0,0,46,23,13,35,79,33,0,6,11,5
10/06/94,01:05:00,35,0,33,39,24,14,37,79,25,0,14,9,5
10/06/94,01:10:00,16,0,22,30,25,14,39,78,25,0,16,7,5
10/06/94,01:15:00,1,0,23,35,22,13,33,79,25,0,13,7,5
10/06/94,01:20:00,0,0,43,40,19,11,29,77,37,0,10,15,5
10/06/94,01:25:00,0,0,17,38,17,10,27,76,25,0,8,18,5
10/06/94,01:30:00,13,0,49,47,17,10,27,77,25,0,7,13,5
10/06/94,01:35:00,0,0,16,45,17,10,27,77,25,0,8,9,5
10/06/94,01:40:00,0,0,18,43,16,10,25,77,25,0,17,9,5
10/06/94,01:45:00,32,0,39,39,16,9,25,76,25,0,16,18,6
10/06/94,01:50:00,13,0,51,44,16,10,26,77,35,0,12,16,5
10/06/94,01:55:00,0,0,18,50,18,10,28,77,25,0,10,11,5
10/06/94,02:00:00,35,0,12,44,18,11,29,77,25,0,8,9,5
10/06/94,02:05:00,21,0,22,43,19,11,30,77,25,0,9,11,5
10/06/94,02:10:00,11,0,20,47,19,11,30,76,25,0,16,20,5
10/06/94,02:15:00,0,0,27,45,19,11,30,76,25,0,15,14,5
10/06/94,02:20:00,26,0,25,40,20,11,31,76,25,0,12,11,4
10/06/94,02:25:00,1,0,35,42,20,11,30,76,25,0,10,8,5
10/06/94,02:30:00,35,0,21,37,20,11,31,76,25,0,8,11,5
10/06/94,02:35:00,0,0,39,41,19,11,29,76,25,0,7,20,4
10/06/94,02:40:00,0,0,34,53,18,10,28,76,25,0,6,14,4
10/06/94,02:45:00,10,0,43,49,17,10,27,77,41,0,10,10,5
10/06/94,02:50:00,7,0,9,41,17,10,27,77,44,0,19,14,15
10/06/94,02:55:00,0,0,43,42,18,10,28,77,41,0,16,20,13
10/06/94,03:00:00,26,0,25,36,20,11,30,76,41,0,12,14,10
10/06/94,03:05:00,30,0,34,40,21,12,32,77,41,0,10,10,8
10/06/94,03:10:00,10,0,21,48,21,12,32,77,41,0,10,13,7
10/06/94,03:15:00,0,0,22,54,20,12,32,77,41,0,18,21,6
10/06/94,03:20:00,37,0,34,31,20,11,30,76,41,0,16,15,6
10/06/94,03:25:00,4,0,13,37,19,11,29,77,41,0,12,11,6
10/06/94,03:30:00,33,0,0,41,18,11,29,77,41,0,10,13,5
10/06/94,03:35:00,22,0,33,44,18,10,28,77,57,0,14,22,12
10/06/94,03:40:00,11,0,16,34,17,10,27,77,41,0,18,16,14
10/06/94,03:45:00,3,0,21,45,16,10,26,77,41,0,14,12,10
10/06/94,03:50:00,16,0,5,44,17,10,26,77,47,0,11,12,8
10/06/94,03:55:00,39,0,8,49,17,10,26,77,41,0,13,21,7
10/06/94,04:00:00,1,0,11,42,16,10,26,77,41,0,19,18,6
10/06/94,04:05:00,19,0,2,50,16,9,25,77,41,0,15,13,6
10/06/94,04:10:00,1,0,16,45,16,9,25,78,41,0,12,13,13
10/06/94,04:15:00,15,0,27,51,15,9,23,78,33,0,10,22,15
10/06/94,04:20:00,25,0,54,43,14,8,22,78,33,0,8,15,11
10/06/94,04:25:00,27,0,7,45,14,8,22,78,33,0,13,12,9
10/06/94,04:30:00,10,0,40,59,13,8,22,78,25,0,20,12,7
10/06/94,04:35:00,0,0,33,49,13,8,21,78,25,0,15,21,7
10/06/94,04:40:00,15,0,12,50,14,8,22,77,25,0,12,15,6
10/06/94,04:45:00,32,0,19,50,14,8,23,77,25,0,10,11,6
10/06/94,04:50:00,0,0,33,55,15,9,23,77,25,0,8,10,6
10/06/94,04:55:00,0,0,24,54,15,9,24,77,25,0,14,19,5
10/06/94,05:00:00,19,0,29,51,14,8,23,122,25,0,18,18,6
10/06/94,05:05:00,30,0,19,46,14,8,22,77,27,0,14,12,16
10/06/94,05:10:00,29,0,30,58,13,8,20,77,41,0,11,11,12
10/06/94,05:15:00,15,0,39,43,12,7,19,77,41,0,14,21,9
10/06/94,05:20:00,10,0,36,45,11,6,17,78,41,0,20,19,8
10/06/94,05:25:00,44,18,45,33,10,6,17,77,50,0,16,13,8
10/06/94,05:30:00,39,16,40,38,10,6,16,76,41,0,13,10,12
10/06/94,05:35:00,55,1,3,42,10,6,16,76,33,0,10,8,10
10/06/94,05:40:00,46,0,27,38,9,5,15,77,33,0,9,7,8
10/06/94,05:45:00,42,0,13,33,8,5,14,77,33,0,8,6,7
10/06/94,05:50:00,50,0,11,38,8,5,13,77,43,0,7,6,7
10/06/94,05:55:00,56,0,18,43,8,5,13,77,33,0,7,6,6
10/06/94,06:00:00,46,0,17,41,7,5,12,77,33,0,7,16,6
10/06/94,06:05:00,54,0,17,30,7,4,12,77,33,0,6,15,5
10/06/94,06:10:00,52,0,35,37,7,4,11,77,33,0,6,11,5
10/06/94,06:15:00,44,0,21,34,6,4,11,76,25,0,6,9,5
10/06/94,06:20:00,43,0,15,35,6,4,11,76,25,0,6,7,5
10/06/94,06:25:00,30,0,45,39,6,4,10,77,41,0,6,6,5
10/06/94,06:30:00,44,0,39,44,5,4,10,77,45,0,6,12,5
10/06/94,06:35:00,45,0,6,42,5,3,9,77,60,0,10,20,6
10/06/94,06:40:00,54,0,8,43,4,3,8,77,45,0,17,14,6
10/06/94,06:45:00,51,0,23,51,4,3,7,129,45,0,14,11,6
10/06/94,06:50:00,47,0,15,47,3,2,6,77,45,0,11,14,11
10/06/94,06:55:00,53,0,30,48,3,2,6,77,45,0,9,21,14
10/06/94,07:00:00,52,0,11,33,3,2,5,77,45,0,8,14,10
10/06/94,07:05:00,44,0,19,51,2,2,5,77,45,0,7,11,8
10/06/94,07:10:00,42,0,19,43,2,2,4,77,48,0,13,9,7
10/06/94,07:15:00,51,0,13,49,2,1,4,77,48,0,18,15,6
10/06/94,07:20:00,38,0,18,49,1,1,4,77,49,0,14,20,6
10/06/94,07:25:00,35,1,0,38,1,1,3,77,49,0,11,14,6
10/06/94,07:30:00,25,0,14,43,1,1,3,78,48,0,9,10,5
10/06/94,07:35:00,31,1,3,53,0,1,2,77,49,0,14,16,5
10/06/94,07:40:00,28,0,10,50,0,1,2,77,49,0,19,21,5
10/06/94,07:45:00,53,1,1,40,0,0,1,78,49,0,15,14,5
10/06/94,07:50:00,50,0,2,48,0,0,1,78,49,0,11,11,5
10/06/94,07:55:00,55,2,4,48,0,0,1,78,49,0,10,15,9
10/06/94,08:00:00,45,3,7,53,0,0,0,77,49,0,17,22,16
10/06/94,08:05:00,70,5,17,55,0,0,0,77,48,0,17,16,12
10/06/94,08:10:00,62,10,18,50,0,0,0,76,48,0,14,12,10
10/06/94,08:15:00,58,2,2,50,0,0,0,77,48,0,11,9,8
10/06/94,08:20:00,50,1,8,55,0,0,0,77,48,0,10,8,7
10/06/94,08:25:00,75,4,9,55,0,0,0,77,48,0,9,7,7
10/06/94,08:30:00,65,11,17,50,0,0,0,77,48,0,8,6,7
10/06/94,08:35:00,64,14,17,51,0,0,0,76,48,0,8,6,6
10/06/94,08:40:00,67,12,17,47,0,0,0,76,48,0,7,5,6
10/06/94,08:45:00,66,14,16,51,0,0,0,76,48,0,7,5,6
10/06/94,08:50:00,69,12,16,50,0,0,0,76,48,0,7,5,6
10/06/94,08:55:00,67,9,18,45,0,0,0,76,48,0,7,6,6
10/06/94,09:00:00,69,17,17,52,0,0,0,76,47,0,7,6,6
10/06/94,09:05:00,59,4,24,51,0,0,0,77,48,0,7,6,7
10/06/94,09:10:00,72,15,12,55,0,0,0,76,48,0,8,5,7
10/06/94,09:15:00,60,5,13,43,0,0,0,76,31,0,7,5,6
10/06/94,09:20:00,62,12,12,47,0,0,0,76,31,0,8,5,6
10/06/94,09:25:00,63,10,11,44,0,0,0,76,31,0,7,5,6
10/06/94,09:30:00,70,13,23,52,0,0,0,79,32,0,7,5,6
10/06/94,09:35:00,26,1,0,21,0,0,0,81,32,0,8,8,6
10/06/94,09:40:00,29,10,13,11,0,0,0,81,32,0,9,19,6
10/06/94,09:45:00,18,13,20,13,0,0,0,80,32,0,14,16,6
10/06/94,09:50:00,8,12,17,12,0,0,0,81,32,0,13,12,6
10/06/94,09:55:00,18,14,11,13,0,0,0,81,32,0,12,16,17
10/06/94,10:00:00,10,7,16,10,0,0,0,81,32,0,20,27,16
10/06/94,10:05:00,1,1,0,0,0,0,0,81,32,0,24,20,13
10/06/94,10:10:00,28,17,11,1,0,0,0,82,32,0,19,23,27
10/06/94,10:15:00,12,10,11,5,0,0,0,82,32,0,25,29,17
10/06/94,10:20:00,12,8,4,10,0,0,0,82,32,0,26,20,22
10/06/94,10:25:00,3,6,9,2,0,0,0,82,32,0,21,28,22
10/06/94,10:30:00,2,0,5,0,0,0,0,82,32,0,29,34,26
10/06/94,10:35:00,10,8,4,10,0,0,0,83,32,0,28,23,21
10/06/94,10:40:00,0,0,0,0,0,0,0,83,32,0,26,32,33
10/06/94,10:45:00,0,0,0,0,0,0,0,83,32,0,35,39,24
10/06/94,10:50:00,0,0,0,0,0,0,0,82,32,0,29,26,35
10/06/94,10:55:00,0,0,0,0,0,0,0,80,32,0,31,35,31
10/06/94,11:00:00,0,0,0,0,0,0,0,79,32,0,39,41,26
10/06/94,11:05:00,0,0,0,0,0,0,0,84,33,0,28,28,36
10/06/94,11:10:00,0,0,0,0,0,0,0,85,26,0,35,37,27
10/06/94,11:15:00,0,0,0,0,0,0,0,84,26,0,40,42,39
10/06/94,11:20:00,0,0,0,0,0,0,0,85,26,0,28,29,31
10/06/94,11:25:00,0,0,0,0,0,0,0,82,26,0,37,37,35
10/06/94,11:30:00,0,0,0,0,0,0,0,79,26,0,38,42,35
10/06/94,11:35:00,0,0,0,0,0,0,0,80,26,0,30,28,27
10/06/94,11:40:00,0,0,0,0,0,0,0,79,26,0,39,37,40
10/06/94,11:45:00,0,0,0,0,0,0,0,79,26,0,35,41,31
10/06/94,11:50:00,0,0,0,0,0,0,0,81,26,0,32,29,31
10/06/94,11:55:00,0,0,0,0,0,0,0,80,26,0,40,39,37
10/06/94,12:00:00,0,0,0,0,0,0,0,80,26,0,32,37,27
10/06/94,12:05:00,0,0,0,0,0,0,0,79,26,0,34,32,41
10/06/94,12:10:00,0,0,0,0,0,0,0,80,26,0,40,39,31
10/06/94,12:15:00,0,0,0,0,0,0,0,79,26,0,40,40,32
10/06/94,12:20:00,0,0,0,0,0,0,0,79,26,0,34,40,37
10/06/94,12:25:00,0,0,0,0,0,0,0,79,26,0,33,31,29
10/06/94,12:30:00,0,0,0,0,0,0,0,79,26,0,41,38,37
10/06/94,12:35:00,0,0,0,0,0,0,0,80,26,0,29,40,35
10/06/94,12:40:00,0,0,0,0,0,0,0,80,26,0,36,31,28
10/06/94,12:45:00,0,0,0,0,0,0,0,79,26,0,40,39,40
10/06/94,12:50:00,0,0,0,0,0,0,0,80,26,0,30,34,32
10/06/94,12:55:00,0,0,0,0,0,0,0,80,26,0,38,33,33
10/06/94,13:00:00,0,0,0,0,0,0,0,79,26,0,37,41,36
10/06/94,13:05:00,0,0,0,0,0,0,0,79,26,0,31,41,28
10/06/94,13:10:00,0,0,0,0,0,0,0,80,27,0,40,35,36
10/06/94,13:15:00,0,0,0,0,0,0,0,80,26,0,31,33,35
10/06/94,13:20:00,0,0,0,0,0,0,0,80,33,0,35,41,28
10/06/94,13:25:00,0,0,0,0,0,0,0,79,26,0,42,31,40
10/06/94,13:30:00,0,0,0,0,0,0,0,80,26,0,30,35,31
10/06/94,13:35:00,0,0,0,0,0,0,0,80,26,0,38,42,32
10/06/94,13:40:00,0,0,0,0,0,0,0,79,26,0,41,28,36
10/06/94,13:45:00,0,0,0,0,0,0,0,80,26,0,30,38,27
10/06/94,13:50:00,0,0,0,0,0,0,0,79,26,0,37,41,40
10/06/94,13:55:00,0,0,0,0,0,0,0,80,26,0,41,30,32
10/06/94,14:00:00,0,0,0,0,0,0,0,80,26,0,30,39,31
10/06/94,14:05:00,0,0,0,0,0,0,0,80,39,0,39,41,38
10/06/94,14:10:00,0,0,0,0,0,0,0,80,34,0,32,42,29
10/06/94,14:15:00,0,0,0,0,0,0,0,80,26,0,34,40,36
10/06/94,14:20:00,0,0,0,0,0,0,0,80,26,0,42,31,35
10/06/94,14:25:00,0,0,0,0,0,0,0,80,26,0,28,39,28
10/06/94,14:30:00,0,0,0,0,0,0,0,79,26,0,37,42,40
10/06/94,14:35:00,0,0,0,0,0,0,0,80,26,0,36,29,29
10/06/94,14:40:00,0,0,0,0,0,0,0,80,26,0,33,38,38
10/06/94,14:45:00,0,0,0,0,0,0,0,79,26,0,42,41,35
10/06/94,14:50:00,0,0,0,0,0,0,0,80,29,0,30,29,28
10/06/94,14:55:00,0,0,0,0,0,0,0,80,26,0,37,39,41
10/06/94,15:00:00,0,0,0,0,0,0,0,80,26,0,39,35,32
10/06/94,15:05:00,0,0,0,0,0,0,0,80,26,0,32,32,34
10/06/94,15:10:00,0,0,0,0,0,0,0,80,26,0,40,40,38
10/06/94,15:15:00,0,0,0,0,0,0,0,80,26,0,35,41,28
10/06/94,15:20:00,0,0,0,0,0,0,0,80,34,0,33,41,40
10/06/94,15:25:00,0,0,0,0,0,0,0,80,35,0,40,35,35
10/06/94,15:30:00,0,0,0,0,0,0,0,80,35,0,42,34,31
10/06/94,15:35:00,0,0,0,0,0,0,0,80,26,0,35,40,40
10/06/94,15:40:00,0,0,0,0,0,0,0,80,26,0,34,31,30
10/06/94,15:45:00,0,0,0,0,0,0,0,80,26,0,42,35,35
10/06/94,15:50:00,0,0,0,0,0,0,0,80,26,0,28,43,37
10/06/94,15:55:00,0,0,0,0,0,0,0,80,26,0,37,27,28
10/06/94,16:00:00,0,0,0,0,0,0,0,80,26,0,41,37,41
10/06/94,16:05:00,0,0,0,0,0,0,0,80,26,0,29,42,32
10/06/94,16:10:00,0,0,0,0,0,0,0,80,26,0,39,39,31
10/06/94,16:15:00,0,0,0,0,0,0,0,80,26,0,35,39,38
10/06/94,16:20:00,0,0,0,0,0,0,0,80,26,0,33,32,30
10/06/94,16:25:00,0,0,0,0,0,0,0,80,26,0,41,40,36
10/06/94,16:30:00,0,0,0,0,0,0,0,80,26,0,30,39,36
10/06/94,16:35:00,0,0,0,0,0,0,0,79,26,0,35,42,29
10/06/94,16:40:00,0,0,0,0,0,0,0,79,26,0,41,33,40
10/06/94,16:45:00,0,0,0,0,0,0,0,79,26,0,32,33,34
10/06/94,16:50:00,0,0,0,0,0,0,0,79,26,0,37,39,31
10/06/94,16:55:00,0,0,0,0,0,0,0,79,26,0,40,42,38
10/06/94,17:00:00,0,0,0,0,0,0,0,79,26,0,34,31,31
10/06/94,17:05:00,0,0,0,0,0,0,0,79,26,0,35,36,35
10/06/94,17:10:00,0,0,0,0,0,0,0,79,26,0,43,42,37
10/06/94,17:15:00,0,0,0,0,0,0,0,79,26,0,30,31,29
10/06/94,17:20:00,0,0,0,0,0,0,0,79,26,0,36,36,40
10/06/94,17:25:00,0,0,0,0,0,0,0,80,26,0,40,40,31
10/06/94,17:30:00,0,0,0,0,0,0,0,79,26,0,38,41,39
10/06/94,17:35:00,0,0,0,0,0,0,0,80,26,0,32,30,29
10/06/94,17:40:00,0,0,0,0,2,1,4,79,26,0,38,37,36
10/06/94,17:45:00,0,0,0,0,2,1,4,79,26,0,41,41,37
10/06/94,17:50:00,0,0,0,0,3,2,5,79,26,0,31,33,37
10/06/94,17:55:00,0,0,0,0,3,2,6,79,26,0,36,35,26
10/06/94,18:00:00,0,0,0,0,4,3,7,79,26,0,38,41,36
10/06/94,18:05:00,0,0,0,0,4,3,7,79,26,0,31,29,28
10/06/94,18:10:00,0,0,0,0,5,3,8,79,26,0,41,38,38
10/06/94,18:15:00,0,0,0,0,5,3,9,79,26,0,28,31,33
10/06/94,18:20:00,0,0,0,0,6,4,10,79,26,0,36,34,30
10/06/94,18:25:00,0,0,0,0,6,4,10,79,26,0,36,41,39
10/06/94,18:30:00,0,0,0,0,7,4,11,79,26,0,30,27,30
10/06/94,18:35:00,0,0,0,0,7,5,12,79,26,0,40,38,32
10/06/94,18:40:00,0,0,0,0,8,5,13,79,26,0,27,31,37
10/06/94,18:45:00,0,0,0,0,8,5,14,79,26,0,35,33,27
10/06/94,18:50:00,0,0,0,0,9,5,14,79,26,0,36,40,33
10/06/94,18:55:00,0,0,0,0,9,6,15,80,26,0,29,26,33
10/06/94,19:00:00,0,0,0,0,9,6,15,80,32,0,40,38,25
10/06/94,19:05:00,0,0,0,0,10,6,17,79,25,0,26,28,38
10/06/94,19:10:00,0,0,0,0,10,6,17,79,25,0,34,32,30
10/06/94,19:15:00,0,0,0,0,11,7,17,79,25,0,33,37,27
10/06/94,19:20:00,0,0,0,0,11,7,18,80,26,0,31,29,38
10/06/94,19:25:00,0,0,0,0,11,7,18,79,26,0,39,40,29
10/06/94,19:30:00,0,0,0,0,12,7,19,79,26,0,26,25,28
10/06/94,19:35:00,0,0,0,0,12,8,20,79,26,0,35,34,37
10/06/94,19:40:00,0,0,0,0,14,9,23,79,25,0,30,34,26
10/06/94,19:45:00,0,0,0,0,14,9,23,79,25,0,31,29,30
10/06/94,19:50:00,0,0,0,0,14,10,24,79,25,0,36,38,34
10/06/94,19:55:00,0,0,0,0,15,10,25,79,25,0,26,25,26
10/06/94,20:00:00,0,0,0,0,15,11,26,79,25,0,37,35,30
10/06/94,20:05:00,0,0,0,0,16,11,26,79,33,0,25,26,28
10/06/94,20:10:00,0,0,0,0,16,12,27,80,25,0,32,31,25
10/06/94,20:15:00,0,0,0,0,17,12,28,79,25,0,32,35,33
10/06/94,20:20:00,0,0,0,0,17,13,29,79,25,0,26,26,28
10/06/94,20:25:00,0,0,0,0,18,13,31,79,25,0,35,36,24
10/06/94,20:30:00,0,0,0,0,19,14,32,79,25,0,24,24,33
10/06/94,20:35:00,0,0,0,0,19,14,33,79,25,0,31,32,24
10/06/94,20:40:00,0,0,0,0,20,15,34,79,25,0,28,29,25
10/06/94,20:45:00,0,0,0,0,20,15,34,79,25,0,25,27,31
10/06/94,20:50:00,0,0,0,0,20,16,35,79,25,0,33,34,20
10/06/94,20:55:00,0,0,0,0,21,16,37,79,25,0,22,22,29
10/06/94,21:00:00,0,0,0,0,22,17,38,79,25,0,30,32,26
10/06/94,21:05:00,0,0,0,0,22,17,38,79,25,0,27,26,20
10/06/94,21:10:00,0,0,3,0,23,18,40,78,25,0,25,26,29
10/06/94,21:15:00,4,3,4,0,25,18,42,78,25,0,29,29,18
10/06/94,21:20:00,0,0,0,0,24,18,42,78,25,0,20,20,27
10/06/94,21:25:00,0,0,0,0,27,19,44,78,25,0,27,30,19
10/06/94,21:30:00,0,0,0,0,28,19,46,78,25,0,25,22,24
10/06/94,21:35:00,0,0,0,0,28,20,47,79,25,0,19,22,19
10/06/94,21:40:00,12,10,14,0,31,20,50,78,25,0,27,31,25
10/06/94,21:45:00,15,17,23,0,31,21,51,77,33,0,21,20,17
10/06/94,21:50:00,7,5,11,0,32,21,52,78,33,0,16,14,12
10/06/94,21:55:00,12,17,11,11,33,22,54,78,33,0,14,19,10
10/06/94,22:00:00,9,7,15,8,35,22,55,77,25,0,12,21,9
10/06/94,22:05:00,10,13,12,12,36,22,57,77,30,0,11,15,8
10/06/94,22:10:00,8,7,15,0,38,23,59,77,30,0,10,12,8
10/06/94,22:15:00,17,20,27,11,40,23,61,77,46,0,10,10,8
10/06/94,22:20:00,6,12,15,6,39,23,62,77,46,0,10,14,7
10/06/94,22:25:00,21,24,26,11,42,24,63,77,46,0,18,22,7
10/06/94,22:30:00,7,8,17,10,43,24,65,76,46,0,17,17,7
10/06/94,22:35:00,11,12,14,13,43,24,66,76,46,0,15,13,7
10/06/94,22:40:00,15,20,22,16,42,24,64,76,46,0,12,11,7
10/06/94,22:45:00,17,13,16,15,45,25,68,76,46,0,11,10,7
10/06/94,22:50:00,12,6,16,14,46,25,69,76,46,0,10,9,8
10/06/94,22:55:00,18,15,27,9,46,26,70,75,46,0,9,8,7
10/06/94,23:00:00,23,18,27,17,47,26,70,75,46,0,9,8,7
10/06/94,23:05:00,26,21,28,20,47,26,71,75,46,0,9,7,7
10/06/94,23:10:00,30,21,30,15,48,27,72,75,52,0,9,7,6
10/06/94,23:15:00,41,27,34,25,48,27,72,74,52,0,8,7,6
10/06/94,23:20:00,36,24,34,19,49,27,74,74,46,0,8,7,6
10/06/94,23:25:00,44,28,37,27,49,27,74,98,46,0,8,7,6
10/06/94,23:30:00,45,28,36,27,49,27,74,74,46,0,8,7,6
10/06/94,23:35:00,39,25,33,23,50,28,75,75,50,0,9,6,6
10/06/94,23:40:00,35,23,34,22,50,28,76,75,38,0,8,6,6
10/06/94,23:45:00,42,27,32,24,50,28,75,75,38,0,8,6,6
10/06/94,23:50:00,43,26,32,14,50,28,76,75,47,0,8,5,6
10/06/94,23:55:00,40,24,31,19,51,29,77,75,38,0,8,5,7
10/07/94,00:00:00,38,23,30,19,50,28,76,75,38,0,8,5,6
